This is the latest recevied weather packets stored in our database for station/object K6CED. If no packets are shown the sender has not sent any weather packets the latest 10 day(s).
| Time | Temp. | Humidity | Pressure | Rain* | Wind** | Luminosity | Snow |
|---|---|---|---|---|---|---|---|
| 1777430709 | 16.11° C | 69% | 1018.5 hPa | 0 mm | - | 0 W/m² | - |
| 1777430403 | 16.11° C | 68% | 1018.4 hPa | 0 mm | - | 1 W/m² | - |
| 1777430099 | 16.67° C | 66% | 1018.3 hPa | 0 mm | - | 2 W/m² | - |
| 1777429795 | 16.67° C | 65% | 1018.3 hPa | 0 mm | - | 4 W/m² | - |
| 1777429490 | 16.67° C | 64% | 1018.2 hPa | 0 mm | - | 6 W/m² | - |
| 1777429187 | 17.22° C | 64% | 1018.5 hPa | 0 mm | - | 10 W/m² | - |
| 1777428883 | 17.22° C | 62% | 1018.3 hPa | 0 mm | - | 13 W/m² | - |
| 1777428579 | 17.78° C | 61% | 1018.1 hPa | 0 mm | - | 17 W/m² | - |
| 1777428275 | 17.78° C | 61% | 1018 hPa | 0 mm | - | 22 W/m² | - |
| 1777427970 | 18.33° C | 59% | 1018 hPa | 0 mm | - | 25 W/m² | - |
| 1777427667 | 18.33° C | 58% | 1017.8 hPa | 0 mm | - | 29 W/m² | - |
| 1777427364 | 18.33° C | 57% | 1018.1 hPa | 0 mm | - | 32 W/m² | - |
| 1777427061 | 18.89° C | 56% | 1017.8 hPa | 0 mm | - | 36 W/m² | - |
| 1777426758 | 19.44° C | 55% | 1018 hPa | 0 mm | - | 43 W/m² | - |
| 1777426455 | 19.44° C | 53% | 1017.8 hPa | 0 mm | - | 55 W/m² | - |
| 1777426151 | 20° C | 52% | 1017.9 hPa | 0 mm | - | 64 W/m² | - |
| 1777425845 | 20° C | 50% | 1017.9 hPa | 0 mm | - | 72 W/m² | - |
| 1777425542 | 20° C | 50% | 1017.8 hPa | 0 mm | - | 81 W/m² | - |
| 1777425236 | 20° C | 51% | 1017.7 hPa | 0 mm | - | 91 W/m² | - |
| 1777424934 | 20° C | 51% | 1017.7 hPa | 0 mm | - | 104 W/m² | - |
| 1777424629 | 20.56° C | 50% | 1017.8 hPa | 0 mm | - | 119 W/m² | - |
| 1777424324 | 20.56° C | 49% | 1017.7 hPa | 0 mm | - | 135 W/m² | - |
| 1777424020 | 20° C | 50% | 1017.7 hPa | 0 mm | - | 152 W/m² | - |
| 1777423718 | 20.56° C | 49% | 1017.7 hPa | 0 mm | - | 168 W/m² | - |
| 1777423413 | 21.11° C | 49% | 1017.8 hPa | 0 mm | - | 181 W/m² | - |
* Rain latest hour (hover to see other rain measurements)
** Current wind speed in m/s (hover to see current wind gust speed)